Burlington, NC

1:39 PM EST on February 13, 2016 (GMT -0500)
Burlington-Alamance Regional

Weather History for KBUY - August, 2013

Change the Weather History Date:

Monday, August 26, 2013

  Actual Average Record
Temperature  
Mean Temperature 67 °F -  
Max Temperature 82 °F 86 °F 98 °F (1954)
Min Temperature 53 °F 63 °F 51 °F (1988)
Cooling Degree Days 2    
Growing Degree Days 17 (Base 50)    
Moisture  
Dew Point 56 °F    
Average Humidity 80    
Maximum Humidity 100    
Minimum Humidity 41    
Precipitation  
Precipitation 0.00 in - - ()
Sea Level Pressure  
Sea Level Pressure 30.25 in    
Wind  
Wind Speed 1 mph (SW)    
Max Wind Speed 6 mph    
Max Gust Speed -    
Visibility 8 miles    
Events Fog    
Averages and records for this station are not official NWS values.
T = Trace of Precipitation, MM = Missing Value Source: NWS Daily Summary

Daily Weather History Graph

Daily Weather History Graph

Search for Another Location

Airport or City:

Trip Planner

Search our weather history database for the weather conditions in past years. The results will help you decide how hot, cold, wet, or windy it might be!

Date:

Astronomy

Aug. 26, 2013 Rise Set
Actual Time 6:45 AM EDT 7:53 PM EDT
Civil Twilight 6:18 AM EDT 8:19 PM EDT
Nautical Twilight 5:47 AM EDT 8:51 PM EDT
Astronomical Twilight 5:14 AM EDT 9:24 PM EDT
Moon 11:16 PM EDT (8/26) 12:32 PM EDT (8/26)
Length of Visible Light 14h 01m
Length of Day
13h 08m
Waning Gibbous, 67% of the Moon is Illuminated
Aug 26
Waning Gibbous
Aug 28
Last Quarter
Sep 5
New
Sep 12
First Quarter
Sep 19
Full

Hourly Weather History & Observations

Time (EDT) Temp. Heat Index Dew Point Humidity Pressure Visibility Wind Dir Wind Speed Gust Speed Precip Events Conditions
12:54 AM 59.0 °F - 57.0 °F 93% 30.33 in 10.0 mi Calm Calm - N/A   Clear
1:54 AM 57.9 °F - 57.0 °F 97% 30.33 in 10.0 mi Calm Calm - N/A   Clear
2:54 AM 57.0 °F - 55.9 °F 96% 30.31 in 10.0 mi Calm Calm - N/A   Clear
3:54 AM 57.9 °F - 55.9 °F 93% 30.30 in 10.0 mi Calm Calm - N/A   Clear
4:54 AM 55.9 °F - 54.0 °F 93% 30.28 in 4.0 mi Calm Calm - N/A   Partly Cloudy
5:09 AM 55.4 °F - 53.6 °F 94% 30.29 in 3.0 mi Calm Calm - N/A   Mostly Cloudy
5:13 AM 53.6 °F - 53.6 °F 100% 30.29 in 1.5 mi Calm Calm - N/A   Mostly Cloudy
5:22 AM 55.4 °F - 53.6 °F 94% 30.30 in 0.5 mi Calm Calm - N/A Fog Fog
5:43 AM 53.6 °F - 51.8 °F 94% 30.30 in 1.2 mi Calm Calm - N/A   Scattered Clouds
5:49 AM 53.6 °F - 51.8 °F 94% 30.29 in 4.0 mi Calm Calm - N/A   Scattered Clouds
5:54 AM 53.1 °F - 52.0 °F 96% 30.29 in 9.0 mi Calm Calm - N/A   Partly Cloudy
6:04 AM 53.6 °F - 53.6 °F 100% 30.29 in 1.8 mi Calm Calm - N/A   Clear
6:14 AM 53.6 °F - 51.8 °F 94% 30.29 in 4.0 mi Calm Calm - N/A   Clear
6:24 AM 53.6 °F - 51.8 °F 94% 30.29 in 2.5 mi Calm Calm - N/A   Partly Cloudy
6:46 AM 53.6 °F - 51.8 °F 94% 30.30 in 5.0 mi Calm Calm - N/A   Partly Cloudy
6:54 AM 53.1 °F - 52.0 °F 96% 30.29 in 8.0 mi Calm Calm - N/A   Partly Cloudy
7:29 AM 55.4 °F - 55.4 °F 100% 30.31 in 2.0 mi Calm Calm - N/A   Scattered Clouds
7:38 AM 55.4 °F - 55.4 °F 100% 30.31 in 10.0 mi Calm Calm - N/A   Partly Cloudy
7:54 AM 57.9 °F - 57.0 °F 97% 30.30 in 10.0 mi Calm Calm - N/A   Clear
8:54 AM 64.0 °F - 59.0 °F 84% 30.30 in 10.0 mi Calm Calm - N/A   Partly Cloudy
9:54 AM 69.1 °F - 60.1 °F 73% 30.31 in 10.0 mi WSW 3.5 mph - N/A   Clear
10:54 AM 73.0 °F - 59.0 °F 61% 30.30 in 10.0 mi WSW 4.6 mph - N/A   Clear
11:54 AM 75.9 °F - 59.0 °F 56% 30.28 in 10.0 mi West 4.6 mph - N/A   Clear
12:54 PM 79.0 °F - 61.0 °F 54% 30.25 in 10.0 mi Variable 4.6 mph - N/A   Clear
1:54 PM 80.1 °F 80.6 °F 57.9 °F 47% 30.23 in 10.0 mi Variable 3.5 mph - N/A   Clear
2:54 PM 81.0 °F 80.7 °F 55.0 °F 41% 30.20 in 10.0 mi WSW 5.8 mph - N/A   Clear
3:54 PM 81.0 °F 80.8 °F 55.9 °F 42% 30.18 in 10.0 mi Variable 4.6 mph - N/A   Clear
4:54 PM 81.0 °F 80.8 °F 55.9 °F 42% 30.16 in 10.0 mi Variable 4.6 mph - N/A   Clear
5:54 PM 81.0 °F 81.1 °F 57.9 °F 45% 30.15 in 10.0 mi South 4.6 mph - N/A   Clear
6:54 PM 79.0 °F - 60.1 °F 52% 30.14 in 10.0 mi South 3.5 mph - N/A   Clear
7:54 PM 73.9 °F - 60.1 °F 62% 30.13 in 10.0 mi Calm Calm - N/A   Clear
8:54 PM 70.0 °F - 62.1 °F 76% 30.12 in 10.0 mi Calm Calm - N/A   Clear
9:54 PM 66.0 °F - 61.0 °F 84% 30.13 in 10.0 mi Calm Calm - N/A   Clear
10:54 PM 66.9 °F - 61.0 °F 81% 30.14 in 10.0 mi Calm Calm - N/A   Clear
11:54 PM 66.0 °F - 60.1 °F 81% 30.13 in 10.0 mi Calm Calm - N/A   Clear